Waarnemingen

Advertentie
Mijn weer
Loch Glascarnoch, Groot Brittannië (3031): temperatuur & dauwpunt: 17.10.2017 05:00:00 - 23.10.2017 05:00:00 (BST)Loch Glascarnoch, Groot Brittannië (3031): temperatuur -20cm & temperatuur -100cm: 17.10.2017 05:00:00 - 23.10.2017 05:00:00 (BST)Loch Glascarnoch, Groot Brittannië (3031): windsnelheid: 17.10.2017 05:00:00 - 23.10.2017 05:00:00 (BST)Loch Glascarnoch, Groot Brittannië (3031): windrichting: 17.10.2017 05:00:00 - 23.10.2017 05:00:00 (BST)Loch Glascarnoch, Groot Brittannië (3031): luchtdruk: 17.10.2017 05:00:00 - 23.10.2017 05:00:00 (BST)Loch Glascarnoch, Groot Brittannië (3031): zicht: 17.10.2017 05:00:00 - 23.10.2017 05:00:00 (BST)Loch Glascarnoch, Groot Brittannië (3031): Zonneschijnduur: 17.10.2017 05:00:00 - 23.10.2017 05:00:00 (BST)Loch Glascarnoch, Groot Brittannië (3031): neerslag: 17.10.2017 05:00:00 - 23.10.2017 05:00:00 (BST)
Datum & Tijd tt [°C] td [°C] tt -20cm [°C] tt -100cm [°C] ff [km/u] ff [kn] dd ppp [hPa] vv [km] sd [min] rr [mm]
23.10.2017 05:00:00 - - - - - - - - - - -
23.10.2017 04:00:00 - - - - - - - - - - -
23.10.2017 03:00:00 5,4 4,5 - - 11 6 NO 1010,0 30 0 0,0
23.10.2017 02:00:00 2,9 2,6 - - 4 2 NO 1010,6 35 0 0,0
23.10.2017 01:00:00 2,6 2,1 - - 4 2 OZO 1011,4 30 - 0,0
23.10.2017 00:00:00 3,7 2,7 - - 8 4 NW 1010,9 30 0 0,0
22.10.2017 23:00:00 6,3 5,5 - - 5 3 ONO 1011,0 35 0 0,0
22.10.2017 22:00:00 6,9 6,2 - - 2 1 Z 1011,0 30 0 0,0
22.10.2017 21:00:00 6,9 6,4 - - 8 4 WZW 1010,7 40 0 -
22.10.2017 20:00:00 7,4 7,0 - - 15 8 WNW 1010,5 6 0 0,6
22.10.2017 19:00:00 7,8 7,4 - - 13 7 WNW 1010,0 5 0 0,2
22.10.2017 18:00:00 7,8 6,7 - - 16 9 WNW 1009,2 50 0 0,0
22.10.2017 17:00:00 8,7 7,9 - - 24 13 WNW 1008,3 30 6 0,0
22.10.2017 16:00:00 10,9 8,5 - - 24 13 WNW 1007,1 45 54 0,0
22.10.2017 15:00:00 10,3 8,9 - - 21 11 WNW 1006,6 35 12 0,2
22.10.2017 14:00:00 9,7 9,3 - - 22 12 WNW 1006,1 7 0 1,6
22.10.2017 13:00:00 9,3 8,9 - - 9 5 WNW 1005,4 50 0 2,2
22.10.2017 12:00:00 9,0 8,7 - - 13 7 WNW 1004,8 8 0 3,4
22.10.2017 11:00:00 9,5 8,8 - - 18 10 W 1003,5 12 0 1,4
22.10.2017 10:00:00 9,5 9,4 9,7 10,0 11 6 W 1002,7 7 0 0,0
22.10.2017 09:00:00 8,9 8,7 - - 8 4 W 1001,9 12 0 0,2
22.10.2017 08:00:00 8,7 8,5 - - 8 4 NW 1000,8 10 0 0,6
22.10.2017 07:00:00 8,5 8,3 - - 11 6 W 999,9 20 0 0,4
22.10.2017 06:00:00 8,4 8,1 - - 13 7 WNW 998,8 19 0 0,4
22.10.2017 05:00:00 8,3 7,8 - - 9 5 NW 998,0 30 0 0,2
22.10.2017 04:00:00 8,4 7,7 - - 13 7 WNW 997,3 35 0 -
22.10.2017 03:00:00 8,7 7,9 - - 11 6 WNW 996,5 35 0 0,0
22.10.2017 02:00:00 7,8 7,2 - - 5 3 WNW 995,8 23 0 0,0
22.10.2017 01:00:00 8,4 7,9 - - 8 4 W 995,1 25 - 0,0
22.10.2017 00:00:00 8,2 7,4 - - 5 3 W 994,4 22 0 0,0
21.10.2017 23:00:00 8,6 7,8 - - 4 2 W 993,7 30 0 0,0
21.10.2017 22:00:00 8,5 7,6 - - 4 2 NW 993,0 28 0 0,0
21.10.2017 21:00:00 9,3 7,9 - - 4 2 O 992,2 35 0 0,0
21.10.2017 20:00:00 8,6 7,2 - - 5 3 W 991,8 40 0 0,0
21.10.2017 19:00:00 9,7 7,2 - - 15 8 OZO 990,9 35 0 0,0
21.10.2017 18:00:00 9,5 7,1 - - 11 6 O 990,3 30 0 0,0
21.10.2017 17:00:00 11,2 7,9 - - 9 5 OZO 989,6 30 6 0,0
21.10.2017 16:00:00 11,8 8,0 - - 15 8 O 989,3 35 24 0,0
21.10.2017 15:00:00 12,0 8,0 - - 16 9 OZO 989,3 45 12 0,0
21.10.2017 14:00:00 12,0 8,0 - - 26 14 O 989,3 40 42 0,0
21.10.2017 13:00:00 13,6 7,6 - - 18 10 OZO 989,3 40 60 0,0
21.10.2017 12:00:00 12,5 8,6 - - 18 10 OZO 989,6 50 48 0,0
21.10.2017 11:00:00 11,3 8,5 - - 15 8 OZO 990,1 35 18 0,0
21.10.2017 10:00:00 9,9 7,7 9,7 9,9 13 7 ZO 990,5 50 6 0,0
21.10.2017 09:00:00 8,4 6,9 - - 16 9 ZO 990,8 50 0 0,0
21.10.2017 08:00:00 8,0 6,4 - - 21 11 ZO 990,5 50 0 0,0
21.10.2017 07:00:00 8,7 7,1 - - 11 6 ZO 991,3 50 0 -
21.10.2017 06:00:00 8,5 7,4 - - 8 4 ZZO 991,6 50 0 -
21.10.2017 05:00:00 8,2 7,8 - - 13 7 OZO 992,0 35 0 -
21.10.2017 04:00:00 8,6 7,4 - - 21 11 ZO 993,3 23 0 -
21.10.2017 03:00:00 9,2 7,7 - - 24 13 ZO 993,5 9 0 -
21.10.2017 02:00:00 10,2 8,7 - - 24 13 ZO 993,7 35 0 -
21.10.2017 01:00:00 10,7 8,8 - - 16 9 OZO 994,2 21 - -
21.10.2017 00:00:00 11,6 8,9 - - 24 13 OZO 995,1 50 0 -
20.10.2017 23:00:00 11,5 9,1 - - 22 12 OZO 996,0 50 0 -
20.10.2017 22:00:00 11,2 9,3 - - 13 7 ZO 996,9 50 0 -
20.10.2017 21:00:00 11,4 9,7 - - 22 12 OZO 997,2 50 0 0,0
20.10.2017 20:00:00 11,4 9,7 - - 18 10 OZO 998,3 50 0 0,0
20.10.2017 19:00:00 10,8 9,3 - - 15 8 OZO 998,8 50 0 0,0
20.10.2017 18:00:00 11,1 9,6 - - 9 5 OZO 999,4 45 0 0,0
20.10.2017 17:00:00 11,0 9,4 - - 9 5 ZO 999,6 50 0 0,0
20.10.2017 16:00:00 10,9 9,6 - - 8 4 WNW 1000,2 50 0 0,0
20.10.2017 15:00:00 11,1 9,4 - - 9 5 WNW 1000,3 50 6 0,0
20.10.2017 14:00:00 11,0 10,1 - - 16 9 WNW 1000,3 40 48 0,0
20.10.2017 13:00:00 10,2 9,8 - - 18 10 WNW 1000,1 16 42 0,0
20.10.2017 12:00:00 10,6 10,2 - - 22 12 W 1000,2 11 12 0,2
20.10.2017 11:00:00 10,7 10,2 - - 11 6 WNW 1000,0 3,1 0 0,0
20.10.2017 10:00:00 10,3 10,1 9,5 9,9 2 1 OZO 999,5 45 0 0,0
20.10.2017 09:00:00 10,0 9,8 - - 4 2 NNW 998,5 45 0 0,0
20.10.2017 08:00:00 9,7 9,6 - - 5 3 W 997,6 13 0 0,0
20.10.2017 07:00:00 9,3 9,2 - - 4 2 NW 996,7 16 0 0,2
20.10.2017 06:00:00 8,9 8,8 - - 0 0 N 996,6 10 0 0,4
20.10.2017 05:00:00 8,7 8,6 - - 8 4 WNW 996,2 25 0 0,2
20.10.2017 04:00:00 8,6 8,4 - - 5 3 W 995,8 10 0 0,2
20.10.2017 03:00:00 8,8 8,5 - - 0 0 N 996,2 17 0 0,4
20.10.2017 02:00:00 9,6 9,0 - - 2 1 WNW 996,6 20 0 1,4
20.10.2017 01:00:00 10,2 9,2 - - 5 3 ZW 996,7 13 - 0,6
20.10.2017 00:00:00 10,5 9,4 - - 9 5 ZO 997,0 40 0 0,2
19.10.2017 23:00:00 10,5 9,4 - - 11 6 OZO 997,3 25 0 0,6
19.10.2017 22:00:00 10,9 9,3 - - 15 8 ZO 997,6 30 0 0,0
19.10.2017 21:00:00 10,8 9,0 - - 11 6 OZO 998,1 50 0 0,0
19.10.2017 20:00:00 11,4 8,9 - - 11 6 ZZO 997,9 50 0 0,0
19.10.2017 19:00:00 11,6 9,1 - - 22 12 ZO 998,2 50 0 0,0
19.10.2017 18:00:00 11,8 9,3 - - 18 10 OZO 998,4 45 0 0,0
19.10.2017 17:00:00 12,0 9,4 - - 21 11 OZO 998,8 45 0 0,0
19.10.2017 16:00:00 12,3 9,1 - - 22 12 ZO 998,7 35 0 0,0
19.10.2017 15:00:00 12,1 8,6 - - 24 13 OZO 999,5 40 0 0,0
19.10.2017 14:00:00 12,2 8,9 - - 24 13 OZO 999,5 30 0 0,0
19.10.2017 13:00:00 11,3 9,1 - - 26 14 OZO 1000,2 45 0 0,0
19.10.2017 12:00:00 10,8 8,8 - - 26 14 OZO 1000,8 30 0 0,0
19.10.2017 11:00:00 10,6 8,5 - - 18 10 OZO 1001,0 40 0 0,0
19.10.2017 10:00:00 10,6 8,4 9,4 10,0 21 11 OZO 1001,4 35 0 0,0
19.10.2017 09:00:00 9,6 8,1 - - 24 13 OZO 1001,3 26 0 0,0
19.10.2017 08:00:00 9,4 7,9 - - 24 13 OZO 1001,6 26 0 0,0
19.10.2017 07:00:00 9,4 7,6 - - 18 10 OZO 1002,1 35 0 0,0
19.10.2017 06:00:00 9,1 7,2 - - 21 11 ZO 1002,8 50 0 0,0
19.10.2017 05:00:00 7,9 5,8 - - 5 3 NO 1003,6 50 0 0,0
19.10.2017 04:00:00 7,8 5,6 - - 11 6 OZO 1004,5 50 0 0,0
19.10.2017 03:00:00 7,6 5,1 - - 8 4 O 1005,5 50 0 0,0
19.10.2017 02:00:00 7,5 4,8 - - 8 4 O 1005,7 50 0 0,0
19.10.2017 01:00:00 6,8 4,6 - - 8 4 ZO 1006,5 50 - 0,0
19.10.2017 00:00:00 7,0 4,6 - - 15 8 ZO 1007,2 50 0 0,0
18.10.2017 23:00:00 6,8 4,8 - - 15 8 ZO 1007,9 50 0 0,0
18.10.2017 22:00:00 6,9 5,0 - - 13 7 OZO 1008,9 45 0 0,0
18.10.2017 21:00:00 7,5 5,2 - - 15 8 OZO 1009,7 45 0 0,0
18.10.2017 20:00:00 7,3 5,1 - - 16 9 ZO 1010,0 45 0 0,0
18.10.2017 19:00:00 7,6 5,3 - - 18 10 OZO 1010,5 40 0 0,0
18.10.2017 18:00:00 7,9 5,4 - - 13 7 OZO 1011,4 50 0 0,0
18.10.2017 17:00:00 8,6 5,1 - - 21 11 OZO 1011,9 40 0 0,0
18.10.2017 16:00:00 8,7 5,1 - - 18 10 O 1012,3 35 0 0,0
18.10.2017 15:00:00 9,1 4,9 - - 15 8 OZO 1012,9 35 0 0,0
18.10.2017 14:00:00 9,3 3,8 - - 15 8 OZO 1013,6 40 6 0,0
18.10.2017 13:00:00 8,8 4,0 - - 21 11 OZO 1014,4 50 24 0,0
18.10.2017 12:00:00 8,4 3,9 - - 22 12 OZO 1014,9 30 0 0,0
18.10.2017 11:00:00 7,8 3,5 - - 24 13 OZO 1015,4 45 30 0,0
18.10.2017 10:00:00 6,9 4,5 9,7 10,0 11 6 OZO 1015,8 35 12 0,0
18.10.2017 09:00:00 6,5 4,6 - - 5 3 ZO 1016,2 40 0 0,0
18.10.2017 08:00:00 5,7 4,6 - - 4 2 OZO 1016,3 50 0 0,0
18.10.2017 07:00:00 6,0 4,9 - - 8 4 ZO 1016,3 22 0 0,0
18.10.2017 06:00:00 6,1 4,2 - - 11 6 OZO 1016,5 40 0 0,0
18.10.2017 05:00:00 4,8 3,1 - - 2 1 WNW 1016,8 28 0 0,0
18.10.2017 04:00:00 4,0 1,2 - - 5 3 ZO 1017,0 30 0 0,0
18.10.2017 03:00:00 5,7 2,1 - - 16 9 OZO 1016,9 35 0 0,0
18.10.2017 02:00:00 5,9 2,7 - - 11 6 ZO 1017,0 29 0 0,0
18.10.2017 01:00:00 6,3 3,4 - - 15 8 ZZO 1017,2 24 - 0,0
18.10.2017 00:00:00 5,6 3,4 - - 5 3 O 1017,1 22 0 0,0
17.10.2017 23:00:00 5,4 3,1 - - 4 2 ZW 1017,0 23 0 0,0
17.10.2017 22:00:00 6,8 3,5 - - 5 3 NO 1016,5 21 0 0,0
17.10.2017 21:00:00 7,6 3,9 - - 11 6 NO 1015,9 27 0 0,0
17.10.2017 20:00:00 7,4 5,0 - - 15 8 NNO 1015,5 21 0 0,0
17.10.2017 19:00:00 7,4 5,8 - - 13 7 N 1014,9 28 0 0,0
17.10.2017 18:00:00 8,0 6,3 - - 5 3 NNW 1013,7 40 0 0,0
17.10.2017 17:00:00 8,4 7,5 - - 9 5 NW 1012,6 35 0 0,0
17.10.2017 16:00:00 8,8 6,5 - - 11 6 NNW 1011,6 22 0 0,0
17.10.2017 15:00:00 8,8 7,1 - - 15 8 NNW 1009,9 7 0 0,0
17.10.2017 14:00:00 9,1 6,9 - - 18 10 N 1008,6 40 0 0,0
17.10.2017 13:00:00 9,2 8,3 - - 21 11 WNW 1006,6 18 0 0,2
17.10.2017 12:00:00 9,1 8,7 - - 21 11 WNW 1004,7 4,1 0 0,2
17.10.2017 11:00:00 9,6 9,4 - - 21 11 WNW 1002,1 4,8 0 0,2
17.10.2017 10:00:00 9,9 9,8 9,7 10,2 28 15 WNW 999,7 5 0 0,4
17.10.2017 09:00:00 10,3 10,2 - - 18 10 WNW 997,4 5 0 0,6
17.10.2017 08:00:00 10,3 10,0 - - 21 11 WNW 995,7 14 0 0,6
17.10.2017 07:00:00 10,2 10,0 - - 21 11 WNW 993,9 12 0 0,2
17.10.2017 06:00:00 9,6 9,5 - - 18 10 WNW 992,0 24 0 0,2
17.10.2017 05:00:00 8,9 8,7 - - 13 7 WNW 989,5 30 0 0,4

tt = temperatuur
td = dauwpunt
tt -20cm = temperatuur -20cm
tt -100cm = temperatuur -100cm
ff = windsnelheid
dd = windrichting
ppp = luchtdruk
vv = zicht
sd = Zonneschijnduur
rr = neerslag

Weerstations in de omgeving